Location: *
(57.8420°S, 159.8600°W)
Time: 03:54:42
(UTC+00:00)

ERS-2 - Pass Details

Date: 18 May 2021
Orbit: 491 x 496 km, 98.5° (Epoch: 23 June)

Event Time Altitude Azimuth Distance (km) Brightness Sun altitude
Rises 05:37:59 0° 354° (N) 2,593 5.8 -24.7°
Reaches altitude 10° 05:40:12 10° 344° (NNW) 1,719 5.0 -25.0°
Maximum altitude 05:43:35 33° 278° (W) 878 3.9 -25.5°
Drops below altitude 10° 05:47:00 10° 212° (SSW) 1,744 5.3 -25.9°
Sets 05:49:16 0° 202° (SSW) 2,638 6.1 -26.2°
